Weather in Vozhega

Russia / Vologda Oblast     60°28′18″N   40°12′58″E
temp.,
°C
wind,
m/s
gust,
m/s
humid.,
%
clouds,
%
prec.,
mm/h
press.,
hPa
HPBL,
m
16 june, wed
wed1600:00+12wnw2286100 0.0 100827
03:00+13wnw2871100 0.0 1009296
06:00+14wnw2772100 0.0 1009349
09:00+18wnw464312 0.0 10101996
12:00+20wnw57295 0.0 10112785
15:00+20wnw692792 0.0 10113155
18:00+19wnw483420 0.0 10122672
21:00+14wnw385453 0.0 1014231
17 june, thu
thu1700:00+10w311645 0.0 1015292
03:00+8w27734 0.0 1017125
06:00+12wnw38615 0.0 1018345
09:00+16nw5103814 0.0 10192009
12:00+17nw593788 0.0 10202280
15:00+20nnw58305 0.0 10212411
18:00+19nnw36290 0.0 10221826
21:00+13nw22500 0.0 102411
18 june, fri
fri1800:00+9w115250 0.0 102510
03:00+9ssw2254100 0.0 102634
06:00+13sw2652100 0.0 1025196
09:00+19sw4743100 0.0 1024809
12:00+24wsw473795 0.0 10221475
15:00+26w58349 0.0 10212104
18:00+25wsw48416 0.0 10192097
21:00+20sw3963100 0.0 1019212
19 june, sat
sat1900:00+15wsw268088 0.0 1020106
03:00+14sw310845 0.0 1020181
06:00+18wsw311685 0.0 1020317
09:00+24w59460 0.0 10201214
12:00+28w58360 0.0 10191885
15:00+29w58324 0.0 10182303
18:00+28wsw47383 0.0 10182012
21:00+21wsw27630 0.0 1019129
20 june, sun
sun2000:00+17w11770 0.0 102011
03:00+16ssw22810 0.0 102122
06:00+20wsw38690 0.0 1020262
09:00+26wsw46450 0.0 10201047
12:00+29wsw473325 0.0 10192301
15:00+30wsw583283 0.0 10172468
18:00+29wsw3740100 0.0 10162335
21:00+23ssw311624 0.0 1016307